Preview of NWS' New Version of Forecast
This preview is not operational and should not be used for support decisions.

Regional Weather Roundup (RWR)

Issued by National Weather Service (NWS)

                            
000
ASCA42 TJSJ 191810
RWRPR 
PUERTO RICO/U.S. VIRGIN ISLANDS HOURLY WEATHER ROUNDUP
NATIONAL WEATHER SERVICE SAN JUAN PR
200 PM AST FRI APR 19 2019

PRZ001>002-007>008-010-191900-
PUERTO RICO
  
CITY           SKY/WX    TMP DP  RH WIND       PRES   REMARKS
SAN JUAN LMM   MOSUNNY   88  70  55 NE22      30.02F HX  92           
AGUADILLA      SUNNY     82  70  65 E21       30.03F                  
CEIBA          MOSUNNY   88  70  55 MISG      30.05F HX  92           
$$

VIZ001>002-191900-
U.S. VIRGIN ISLANDS
  
CITY           SKY/WX    TMP DP  RH WIND       PRES   REMARKS
CHARLOTTE AMA  SUNNY     84  70  61 SE16G24   30.03F                  
CHRISTIANSTED  MOSUNNY   86  68  54 E16G25    30.03F                  
$$

HOURLY WEATHER ROUNDUP FOR THE NEWS MEDIA
  
CITY           SKY/WX    TMP DP  RH WIND       PRES   REMARKS
ORLANDO        FAIR      84  67  56 S28G37    29.77F                  
NEW YORK       PTSUNNY   66  60  81 S26G33    29.81F                  
NEWARK         PTSUNNY   79  61  53 S18G28    29.77S                  
CHICAGO        FAIR      48  34  58 N33G40    29.83F                  
HARTFORD       CLOUDY    64  62  93 SW26G38   29.86F                  
BOSTON         PTSUNNY   75  57  53 SW25G44   29.78F                  
DALLAS         PTSUNNY   63  41  44 NW24G31   30.11S                  
PHILADELPHIA   PTSUNNY   77  62  59 S16       29.78F                  
LOS ANGELES    CLOUDY    59  54  83 W10       29.98S FOG              
WASHINGTON DC  LGT RAIN  70  65  84 S12G20    29.68F